ニート彗星

243P/NEAT (2018)

English version
Home page
Updated on February 9, 2019

---------------------------------------------------------------------

・ プロフィール

・ 写真集

・ 軌道要素

Epoch 2018 Aug. 30.0 TT = JDT 2458360.5
T 2018 Aug. 26.00689 TT                                 MPCW
q   2.4544438            (2000.0)            P               Q
n   0.13144874     Peri.  283.55482     +0.97228322     -0.19238738
a   3.8308789      Node    87.65877     +0.23016404     +0.88749145
e   0.3593001      Incl.    7.64145     -0.04110774     +0.41874339
P   7.50
From 334 observations 2003 Aug. 1-2018 Sept. 19, mean residual 0".6.

・ 星図

・ 光度変化

        m1 =    0.7 + 5 logΔ +  40 log r(t - 50)  [   ,108]  (              〜2018年12月12日)
        m1 = -108   + 5 logΔ + 300 log r          [108,135]  (2018年12月12日〜2019年 1月 8日)
        m1 =    0.7 + 5 logΔ +  40 log r(t - 50)  [135,   ]  (2019年 1月 8日〜              )

---------------------------------------------------------------------

軌道要素はM.P.E.C. 2018-S50に掲載されたものです。
星図はステラナビゲータ Ver.10 (アストロアーツ) で作成したものです。
光度グラフはComet for Windowsで作成したものです。

---------------------------------------------------------------------

Copyright(C) Seiichi Yoshida (comet@aerith.net). All rights reserved.